sat.trackr.live / text

‹ back to catalog

ECHOSTAR 23

NORAD 42070 · 2017-014A

PAYLOAD ACTIVE UNKNOWN

§ Identity

Operator
Country
US
Launch date
2017-03-16
Launch site
AFETR
Launch vehicle
Mass (kg)
RCS (m²)
13.16

Purposes: comms

External: N2YO · Heavens-Above · Gunter

§ Orbital elements

Epoch: 2026-05-24T23:47:57.420384Z

Period
1,436.09 min
Inclination
0.0182°
Eccentricity
0.0002094
Mean motion
1.00272052 rev/d
Perigee alt
35,777.7 km
Apogee alt
35,795.3 km
Semi-major
42,164.7 km
B*
0.0000e+0
RAAN
307.9842°
Arg perigee
120.8535°
Mean anomaly
60.8345°
Rev number
3,369

§ Raw data

ECHOSTAR 231 42070U 17014A   26144.99163681 -.00000060  00000+0  00000+0 0  99912 42070   0.0182 307.9842 0002094 120.8535  60.8345  1.00272052 33694

JSON: /api/v1/satellites/42070 · /tle

For live sub-satellite position, see the globe view (requires WebGL).

§ Visibility from observer

Set your observer location to see the next 7 days of passes ≥ 10°. The values pass through the URL so the page stays shareable.

No JS? Fill the form by hand. The geolocation button needs JavaScript.